Regional Weather Roundup
Issued by NWS Little Rock, AR

Home | Current Version | Previous Version | Text Only | Print | Product List | Glossary Off
Versions: 1 2 3 4 5 6 7 8 9 10 11 12 13 14 15 16 17 18 19 20 21 22 23 24 25 26 27 28 29 30 31 32 33 34 35 36 37 38 39 40 41 42 43 44 45 46 47 48 49 50

000
ASUS44 KLZK 260905
RWRLZK

WEATHER ROUNDUP FOR ARKANSAS
NATIONAL WEATHER SERVICE LITTLE ROCK AR
400 AM CDT SAT JUL 26 2014

NOTE: "FAIR" INDICATES FEW OR NO CLOUDS BELOW 12,000 FEET WITH NO
SIGNIFICANT WEATHER AND/OR OBSTRUCTIONS TO VISIBILITY.

ARZ001-003-010-029-261000-
NORTHWEST ARKANSAS

CITY           SKY/WX    TMP DP  RH WIND       PRES   REMARKS
FAYETTEVILLE   CLEAR     74  71  91 S5        29.96S
FORT SMITH     CLEAR     75  72  90 E5        29.94S FOG
HARRISON       CLEAR     72  71  97 S9        29.96F FOG
BENTONVILLE    CLEAR     73  68  83 S5        29.96R
ROGERS         CLEAR     74  70  87 S8        29.97R
SILOAM SPGS    CLEAR     72  64  78 S8        29.96R
HIGHFILL       CLEAR     73  71  93 S5        29.95S
$$

ARZ004-005-016-261000-
NORTH CENTRAL ARKANSAS

CITY           SKY/WX    TMP DP  RH WIND       PRES   REMARKS
BATESVILLE     CLEAR     75  70  83 S8        29.95F
FLIPPIN        CLEAR     73  70  88 S3        29.94F
MTN HOME       CLEAR     71  70  96 CALM      29.94F FOG
$$

ARZ040-041-261000-
WEST CENTRAL ARKANSAS

CITY           SKY/WX    TMP DP  RH WIND       PRES   REMARKS
MENA           CLEAR     79  73  83 CALM      29.99S
MOUNT IDA      CLEAR     70  69  97 CALM      29.96S FOG
$$

ARZ009-017-025-026-028-261000-
NORTHEAST ARKANSAS

CITY           SKY/WX    TMP DP  RH WIND       PRES   REMARKS
CORNING        FAIR      72  72 100 SW5       29.94F
JONESBORO      CLEAR     71  68  90 S8        29.95F
NEWPORT        CLEAR     72  71  96 SW8       29.96F
WALNUT RIDGE   CLEAR     73  64  73 SW12      29.93F
BLYTHEVILLE    CLEAR     69  66  90 SE3       29.98R
$$

ARZ022-023-033-042-044-261000-
CENTRAL ARKANSAS

CITY           SKY/WX    TMP DP  RH WIND       PRES   REMARKS
LITTLE ROCK    CLEAR     73  69  87 CALM      29.97S
N LITTLE ROCK    N/A     74  72  93 SW3       29.97S
JACKSONVILLE   CLEAR     71  71  99 NE2       29.97S
SEARCY         CLEAR     72  71  96 CALM      29.98S
HOT SPRINGS    CLEAR     72  70  93 CALM      29.98S FOG
RUSSELLVILLE   CLEAR     74  72  93 CALM      29.95F
CLINTON        FAIR      70  70 100 CALM      29.98F FOG
$$

ARZ036-261000-
EAST ARKANSAS

CITY           SKY/WX    TMP DP  RH WIND       PRES   REMARKS
WEST MEMPHIS   CLEAR     70  68  93 S5        29.97S
$$

ARZ050-053-066-070-073-261000-
SOUTHWEST ARKANSAS

CITY           SKY/WX    TMP DP  RH WIND       PRES   REMARKS
ARKADELPHIA    FOG       73  73 100 CALM      29.97S VSB 1/2
CAMDEN         CLEAR     73  72  94 CALM      29.97S FOG
TEXARKANA      CLEAR     76  73  91 S5        29.96F FOG
EL DORADO      CLEAR     73  72  96 CALM      29.98S
DE QUEEN       FOG       71  70  96 E3        29.95R VSB 1/4
$$

ARZ056-057-069-261000-
SOUTHEAST ARKANSAS

CITY           SKY/WX    TMP DP  RH WIND       PRES   REMARKS
PINE BLUFF     CLEAR     71  69  93 CALM      29.98S
STUTTGART      CLEAR     73  70  88 S7        29.99R
MONTICELLO     CLEAR     74  69  85 S3        29.98S

$$





USA.gov is the U.S. government's official web portal to all federal, state and local government web resources and services.